This is the latest recevied weather packets stored in our database for station/object GCEMA. If no packets are shown the sender has not sent any weather packets the latest 10 day(s).
| Time | Temp. | Humidity | Pressure | Rain* | Wind** | Luminosity | Snow |
|---|---|---|---|---|---|---|---|
| 1777669582 | 14.44° C | - | 1013.6 hPa | 0 mm | 0 m/s | - | - |
| 1777669401 | 13.89° C | - | 1013.6 hPa | 0 mm | 0 m/s | - | - |
| 1777669221 | 13.89° C | - | 1013.6 hPa | 0 mm | 0 m/s | - | - |
| 1777669039 | 15° C | - | 1013.7 hPa | 0 mm | 0 m/s | - | - |
| 1777668859 | 14.44° C | - | 1013.6 hPa | 0 mm | 0 m/s | - | - |
| 1777668680 | 14.44° C | - | 1013.6 hPa | 0 mm | 0 m/s | - | - |
| 1777668501 | 13.89° C | - | 1013.8 hPa | 0 mm | 0 m/s | - | - |
| 1777668321 | 13.89° C | - | 1013.8 hPa | 0 mm | 0 m/s | - | - |
| 1777668138 | 13.89° C | - | 1013.7 hPa | 0 mm | 0 m/s | - | - |
| 1777667959 | 14.44° C | - | 1013.8 hPa | 0 mm | 0 m/s | - | - |
| 1777667779 | 14.44° C | - | 1013.7 hPa | 0 mm | 0 m/s | - | - |
| 1777667600 | 13.89° C | - | 1013.7 hPa | 0 mm | 0 m/s | - | - |
| 1777667420 | 14.44° C | - | 1013.7 hPa | 0 mm | 0 m/s | - | - |
| 1777667238 | 14.44° C | - | 1013.6 hPa | 0 mm | 0 m/s | - | - |
| 1777667058 | 13.89° C | - | 1013.8 hPa | 0 mm | 0 m/s | - | - |
| 1777666879 | 15° C | - | 1013.8 hPa | 0 mm | 0 m/s | - | - |
| 1777666699 | 14.44° C | - | 1013.8 hPa | 0 mm | 0 m/s | - | - |
| 1777666519 | 14.44° C | - | 1013.8 hPa | 0 mm | 0 m/s | - | - |
| 1777666339 | 14.44° C | - | 1013.9 hPa | 0 mm | 0 m/s | - | - |
| 1777666157 | 15° C | - | 1013.9 hPa | 0 mm | 0 m/s | - | - |
| 1777665978 | 14.44° C | - | 1013.9 hPa | 0 mm | 0 m/s | - | - |
| 1777665619 | 14.44° C | - | 1013.8 hPa | 0 mm | 0 m/s | - | - |
| 1777665257 | 15° C | - | 1013.8 hPa | 0 mm | 0 m/s | - | - |
| 1777665077 | 15° C | - | 1013.9 hPa | 0 mm | 0 m/s | - | - |
| 1777664898 | 14.44° C | - | 1013.9 hPa | 0 mm | 0 m/s | - | - |
* Rain latest hour (hover to see other rain measurements)
** Current wind speed in m/s (hover to see current wind gust speed)